Hourly Weather Ruciany

Today, 15 April, Thursday

Time Temperature Precipitation Wind Pressure Humidity
00:00 -1°C° 0.6 mm 4 mps 748 mmHg 99%
01:00 -1°C° 0 mm 4 mps 748 mmHg 99%
02:00 0°C° 0.5 mm 3 mps 747 mmHg 99%
03:00 0°C° 0.5 mm 3 mps 747 mmHg 99%
04:00 +1°C° 0.5 mm 2 mps 747 mmHg 99%
05:00 +1°C° 0.3 mm 2 mps 747 mmHg 99%
06:00 +2°C° 0.3 mm 2 mps 747 mmHg 99%
07:00 +2°C° 0.3 mm 2 mps 747 mmHg 99%
08:00 +3°C° 0.2 mm 1 mps 747 mmHg 99%
09:00 +4°C° 0.2 mm 1 mps 747 mmHg 99%
10:00 +4°C° 0.2 mm 1 mps 747 mmHg 99%
11:00 +4°C° 0 mm 1 mps 747 mmHg 98%
12:00 +4°C° 0 mm 1 mps 748 mmHg 98%
13:00 +5°C° 0 mm 1 mps 748 mmHg 98%
14:00 +5°C° 0 mm 1 mps 748 mmHg 97%
15:00 +5°C° 0 mm 1 mps 748 mmHg 96%
16:00 +4°C° 0 mm 0 mps 748 mmHg 96%
17:00 +5°C° 0 mm 1 mps 748 mmHg 96%
18:00 +5°C° 0 mm 1 mps 748 mmHg 97%
19:00 +4°C° 0 mm 2 mps 748 mmHg 98%
20:00 +4°C° 0.1 mm 2 mps 748 mmHg 98%
21:00 +3°C° 0.1 mm 3 mps 748 mmHg 98%
22:00 +3°C° 0.1 mm 3 mps 747 mmHg 98%
23:00 +3°C° 0.3 mm 3 mps 747 mmHg 98%

Tomorrow, 16 April, Friday

Time Temperature Precipitation Wind Pressure Humidity
00:00 +2°C° 0.3 mm 3 mps 747 mmHg 98%
01:00 +2°C° 0.3 mm 3 mps 747 mmHg 98%
02:00 +2°C° 0.6 mm 3 mps 747 mmHg 98%
03:00 +1°C° 0.6 mm 4 mps 746 mmHg 98%
04:00 +1°C° 0.6 mm 4 mps 746 mmHg 98%
05:00 +1°C° 0.4 mm 4 mps 746 mmHg 98%
06:00 +1°C° 0.4 mm 4 mps 746 mmHg 97%
07:00 +3°C° 0.4 mm 4 mps 746 mmHg 97%
08:00 +3°C° 0.7 mm 4 mps 746 mmHg 97%
09:00 +3°C° 0.7 mm 4 mps 746 mmHg 97%
10:00 +3°C° 0.7 mm 4 mps 746 mmHg 97%
11:00 +4°C° 0.1 mm 4 mps 746 mmHg 96%
12:00 +4°C° 0.1 mm 4 mps 746 mmHg 96%
13:00 +5°C° 0.1 mm 4 mps 747 mmHg 95%
14:00 +5°C° 0 mm 4 mps 747 mmHg 94%
15:00 +6°C° 0 mm 4 mps 747 mmHg 93%
16:00 +6°C° 0 mm 4 mps 747 mmHg 93%
17:00 +6°C° 0.2 mm 4 mps 747 mmHg 94%
18:00 +5°C° 0.2 mm 4 mps 747 mmHg 96%
19:00 +5°C° 0.2 mm 4 mps 747 mmHg 97%
20:00 +5°C° 0.2 mm 4 mps 747 mmHg 97%
21:00 +5°C° 0.2 mm 4 mps 747 mmHg 97%
22:00 +5°C° 0.2 mm 4 mps 747 mmHg 97%
23:00 +5°C° 0 mm 4 mps 747 mmHg 97%

Day after tomorrow, 17 April, Saturday

Time Temperature Precipitation Wind Pressure Humidity
00:00 +5°C° 0 mm 4 mps 747 mmHg 98%
01:00 +5°C° 0 mm 3 mps 747 mmHg 98%
02:00 +4°C° 0 mm 3 mps 747 mmHg 97%
03:00 +4°C° 0 mm 3 mps 748 mmHg 97%
04:00 +4°C° 0 mm 3 mps 748 mmHg 97%
05:00 +5°C° 0 mm 3 mps 748 mmHg 96%
06:00 +5°C° 0 mm 3 mps 748 mmHg 94%
07:00 +7°C° 0 mm 3 mps 748 mmHg 93%
08:00 +8°C° 0.1 mm 3 mps 749 mmHg 87%
09:00 +8°C° 0.1 mm 4 mps 749 mmHg 81%
10:00 +11°C° 0.1 mm 4 mps 749 mmHg 74%
11:00 +11°C° 0.3 mm 4 mps 749 mmHg 74%
12:00 +11°C° 0.3 mm 4 mps 749 mmHg 73%
13:00 +11°C° 0.3 mm 4 mps 749 mmHg 72%
14:00 +11°C° 0.2 mm 4 mps 750 mmHg 73%
15:00 +11°C° 0.2 mm 4 mps 750 mmHg 74%
16:00 +10°C° 0.2 mm 4 mps 750 mmHg 75%
17:00 +8°C° 0 mm 4 mps 750 mmHg 80%
18:00 +8°C° 0 mm 3 mps 750 mmHg 85%
19:00 +7°C° 0 mm 3 mps 751 mmHg 90%
20:00 +6°C° 0 mm 2 mps 751 mmHg 91%
21:00 +6°C° 0 mm 2 mps 751 mmHg 92%
22:00 +6°C° 0 mm 2 mps 751 mmHg 93%
23:00 +7°C° 0 mm 1 mps 751 mmHg 93%

18 April, Sunday

Time Temperature Precipitation Wind Pressure Humidity
00:00 +7°C° 0 mm 1 mps 751 mmHg 92%
01:00 +7°C° 0 mm 1 mps 751 mmHg 92%
02:00 +6°C° 0 mm 1 mps 751 mmHg 92%
03:00 +6°C° 0 mm 1 mps 750 mmHg 92%
04:00 +5°C° 0 mm 1 mps 750 mmHg 93%
05:00 +6°C° 0 mm 1 mps 750 mmHg 90%
06:00 +7°C° 0 mm 1 mps 750 mmHg 87%
07:00 +7°C° 0 mm 0 mps 750 mmHg 84%
08:00 +9°C° 0 mm 1 mps 750 mmHg 82%
09:00 +10°C° 0 mm 1 mps 750 mmHg 79%
10:00 +11°C° 0 mm 1 mps 750 mmHg 76%
11:00 +11°C° 0.1 mm 1 mps 750 mmHg 77%
12:00 +10°C° 0.1 mm 2 mps 750 mmHg 78%
13:00 +10°C° 0.1 mm 2 mps 750 mmHg 79%
14:00 +10°C° 0 mm 2 mps 750 mmHg 82%
15:00 +10°C° 0 mm 2 mps 750 mmHg 86%
16:00 +9°C° 0 mm 2 mps 750 mmHg 89%
17:00 +9°C° 0 mm 2 mps 750 mmHg 91%
18:00 +9°C° 0 mm 2 mps 750 mmHg 92%
19:00 +8°C° 0 mm 2 mps 750 mmHg 94%
20:00 +8°C° 0 mm 2 mps 750 mmHg 94%
21:00 +8°C° 0 mm 2 mps 750 mmHg 94%
22:00 +8°C° 0 mm 2 mps 751 mmHg 95%
23:00 +8°C° 0 mm 2 mps 751 mmHg 95%

19 April, Monday

Time Temperature Precipitation Wind Pressure Humidity
00:00 +8°C° 0 mm 2 mps 750 mmHg 96%
01:00 +8°C° 0 mm 3 mps 750 mmHg 96%
02:00 +7°C° 0 mm 3 mps 750 mmHg 96%
03:00 +7°C° 0 mm 3 mps 750 mmHg 95%
04:00 +7°C° 0 mm 3 mps 750 mmHg 95%
05:00 +7°C° 0.1 mm 3 mps 750 mmHg 93%
06:00 +7°C° 0.1 mm 4 mps 751 mmHg 91%
07:00 +7°C° 0.1 mm 4 mps 751 mmHg 89%
08:00 +9°C° 0 mm 5 mps 751 mmHg 79%
09:00 +10°C° 0 mm 6 mps 750 mmHg 69%
10:00 +12°C° 0 mm 7 mps 750 mmHg 60%
11:00 +11°C° 0 mm 7 mps 750 mmHg 60%
12:00 +11°C° 0 mm 6 mps 750 mmHg 60%
13:00 +11°C° 0 mm 6 mps 750 mmHg 60%
14:00 +11°C° 0 mm 6 mps 750 mmHg 62%
15:00 +12°C° 0 mm 5 mps 750 mmHg 64%
16:00 +10°C° 0 mm 5 mps 750 mmHg 67%
17:00 +10°C° 0 mm 5 mps 749 mmHg 69%
18:00 +10°C° 0 mm 4 mps 749 mmHg 71%
19:00 +8°C° 0 mm 4 mps 749 mmHg 74%
20:00 +7°C° 0 mm 4 mps 749 mmHg 76%
21:00 +7°C° 0 mm 4 mps 749 mmHg 77%
22:00 +6°C° 0 mm 4 mps 750 mmHg 79%
23:00 +6°C° 0 mm 4 mps 749 mmHg 79%

20 April, Tuesday

Time Temperature Precipitation Wind Pressure Humidity
00:00 +5°C° 0 mm 4 mps 749 mmHg 80%
01:00 +5°C° 0 mm 3 mps 749 mmHg 80%
02:00 +5°C° 0 mm 4 mps 749 mmHg 78%
03:00 +6°C° 0 mm 4 mps 749 mmHg 76%
04:00 +6°C° 0 mm 4 mps 749 mmHg 73%
05:00 +6°C° 0 mm 4 mps 749 mmHg 73%
06:00 +7°C° 0 mm 4 mps 749 mmHg 73%
07:00 +7°C° 0 mm 4 mps 749 mmHg 73%
08:00 +8°C° 0 mm 5 mps 749 mmHg 68%
09:00 +9°C° 0 mm 5 mps 748 mmHg 64%
10:00 +10°C° 0 mm 6 mps 748 mmHg 59%
11:00 +12°C° 0 mm 5 mps 748 mmHg 59%
12:00 +12°C° 0 mm 4 mps 748 mmHg 59%
13:00 +12°C° 0 mm 4 mps 748 mmHg 58%
14:00 +12°C° 0 mm 4 mps 747 mmHg 59%
15:00 +12°C° 0 mm 4 mps 747 mmHg 60%
16:00 +11°C° 0 mm 4 mps 747 mmHg 61%
17:00 +11°C° 0 mm 4 mps 747 mmHg 63%
18:00 +10°C° 0 mm 3 mps 747 mmHg 64%
19:00 +9°C° 0 mm 2 mps 747 mmHg 66%
20:00 +9°C° 0 mm 2 mps 747 mmHg 65%
21:00 +9°C° 0 mm 2 mps 747 mmHg 64%
22:00 +9°C° 0 mm 3 mps 747 mmHg 63%
23:00 +8°C° 0 mm 3 mps 747 mmHg 66%
Show more